Powrót do katalogu

FENGYUN 1C DEB

AktywnyPO
NORAD 31843·DEBRIS·🇨🇳 China

Wystrzelony May 10, 1999 z Taiyuan Satellite Launch Center

Loading…

Następne Przeloty (najbliższe 24 godziny)

TLE

ŚwieżeSource: Space-Track

Epoka: Sep 13, 2026, 17:35 UTC

1 31843U 99025CJH 26256.73317960  .00004330  00000-0  26656-2 0  9998
2 31843  99.2918 179.4882 0631825  34.4161 329.6256 13.36217182683668

Śledź FENGYUN 1C DEB w czasie rzeczywistym z AllMySat

Download on the App Store